Location: Brunembert
(50.7122°N, 1.8935°E)
Time: 04:17:24
(UTC+00:00)

SeaSat 1 - Pass Details

Date: 22 April 2021
Orbit: 744 x 747 km, 108.0° (Epoch: 06 May)

Event Time Altitude Azimuth Distance (km) Brightness Sun altitude
Rises 23:23:24 0° 28° (NNE) 3,205 6.5 -26.5°
Reaches altitude 10° 23:25:41 10° 26° (NNE) 2,277 5.7 -26.5°
Maximum altitude 23:30:36 67° 305° (NW) 814 2.6 -26.6°
Enters shadow 23:31:04 62° 271° (W) 840 2.6 -26.6°
